Hourly Data Report for October 05, 2013

All times are specified in Local Standard Time (LST). Add 1 hour to adjust for Daylight Saving Time where and when it is observed.

CHARLOTTETOWN A
PRINCE EDWARD ISLAND

46°17'21.000" N
63°07'09.000" W
48.50 m
8300301
71706
YYG

Download Data

Hourly Data (October 2013)
Hourly Data Report for October 5, 2013
Temp Definition
°C
Dew Point Temp Definition
°C
Rel Hum Definition
%
Wind Dir Definition
10's deg

Wind Spd Definition
km/h
Visibility Definition
km
Stn Press Definition
kPa
Hmdx Definition


Wind Chill Definition


Weather Definition


TIME
00:00 Legend Double Dagger 7.7 5.2 84 30 8 24.1 100.98     LegendNANA
01:00 Legend Double Dagger 6.7 4.5 86 26 11 24.1 101.02     LegendNANA
02:00 Legend Double Dagger 6.5 4.2 85 27 9 24.1 101.01     Clear
03:00 Legend Double Dagger 6.9 5.2 89 27 12 24.1 101.03     LegendNANA
04:00 Legend Double Dagger 6.3 5.3 93 29 8 24.1 101.07     LegendNANA
05:00 Legend Double Dagger 6.4 5.2 92 29 5 24.1 101.08     Clear
06:00 Legend Double Dagger 6.6 5.2 91 31 7 24.1 101.10     LegendNANA
07:00 Legend Double Dagger 7.6 5.9 89 25 4 24.1 101.16     LegendNANA
08:00 Legend Double Dagger 8.4 6.7 89 24 12 24.1 101.21     Mostly Cloudy
09:00 Legend Double Dagger 10.3 7.9 85 26 10 24.1 101.22     LegendNANA
10:00 Legend Double Dagger 12.0 7.7 75 28 11 24.1 101.18     LegendNANA
11:00 Legend Double Dagger 12.9 6.8 66 31 9 24.1 101.15     Mainly Clear
12:00 Legend Double Dagger 12.9 6.1 63 26 8 24.1 101.13     LegendNANA
13:00 Legend Double Dagger 13.9 6.1 59 27 13 24.1 101.10     LegendNANA
14:00 Legend Double Dagger 13.6 5.8 59 27 11 24.1 101.06     Mostly Cloudy
15:00 Legend Double Dagger 12.5 5.9 64 28 12 24.1 101.06     LegendNANA
16:00 Legend Double Dagger 12.1 4.6 60 32 12 24.1 101.06     LegendNANA
17:00 Legend Double Dagger 11.6 4.6 62 30 6 24.1 101.06     Mainly Clear
18:00 Legend Double Dagger 8.9 4.9 76 30 5 24.1 101.10     LegendNANA
19:00 Legend Double Dagger 6.0 5.0 93 31 4 24.1 101.12     LegendNANA
20:00 Legend Double Dagger 5.5 4.3 92 28 4 24.1 101.12     Mainly Clear
21:00 Legend Double Dagger 6.7 4.5 86 24 5 24.1 101.12     LegendNANA
22:00 Legend Double Dagger 9.6 5.6 76 33 20 24.1 101.14     LegendNANA
23:00 Legend Double Dagger 9.4 3.0 64 31 18 24.1 101.17     Mostly Cloudy

Notes on Data Quality.

Legend

  • E = Estimated
  • M = Missing
  • NA = Not Available
  • ‡ = Partner data that is not subject to review by the National Climate Archives
Date modified: